Simultaneous Nadir Overpasses (SNOs) Predictions

Prediction of SNOs between METOP-A and TERRA Satellite Orbit:

Table of predicted SNOs for the next 14.0 days since TLE Epoch: 7/18/2020
Index Date (METOP-A) Time (METOP-A) Lat,Lon (METOP-A) SZA (METOP-A ) Date (TERRA) Time (TERRA) Lat,Lon (TERRA) SZA (TERRA ) Distance(km) Time Diff (sec)
1 07/19/2020 05:19:22 -81.41, -30.82 116.45 07/19/2020 05:20:18 -81.39, -30.97 116.45 3.00 56
2 07/19/2020 06:10:02 81.40, 136.95 63.60 07/19/2020 06:09:44 81.40, 136.81 63.58 2.35 18
3 07/22/2020 00:53:43 -81.40, 35.73 115.90 07/22/2020 00:54:33 -81.40, 35.68 115.89 0.82 50
4 07/22/2020 01:44:24 81.40,-156.93 64.11 07/22/2020 01:44:00 81.39,-156.96 64.09 1.40 24
5 07/24/2020 20:28:04 -81.40, 102.26 115.31 07/24/2020 20:28:48 -81.41, 102.28 115.28 1.59 44
6 07/24/2020 21:18:45 81.40, -90.43 64.70 07/24/2020 21:18:15 81.40, -90.38 64.69 0.84 30
7 07/27/2020 16:02:25 -81.40, 168.38 114.72 07/27/2020 16:03:03 -81.40, 168.46 114.69 1.35 38
8 07/27/2020 16:53:05 81.39, -23.94 65.33 07/27/2020 16:52:29 81.40, -23.85 65.33 1.77 36
9 07/30/2020 11:36:46 -81.40,-125.11 114.04 07/30/2020 11:37:18 -81.40,-125.02 114.01 1.48 32
